Coffeyville, KS

6:53 AM CST on November 20, 2017 (GMT -0600)
Coffeyville Municipal

Weather History for KCFV - March, 2014

Change the Weather History Date:

Friday, March 21, 2014

  Actual Average Record
Temperature  
Mean Temperature 60 °F -  
Max Temperature 73 °F 58 °F 88 °F (1997)
Min Temperature 48 °F 36 °F 21 °F (2002)
Degree Days  
Heating Degree Days 4    
Growing Degree Days 10 (Base 50)    
Moisture  
Dew Point 33 °F    
Average Humidity 38    
Maximum Humidity 54    
Minimum Humidity 27    
Precipitation  
Precipitation 0.00 in - - ()
Sea Level Pressure  
Sea Level Pressure 29.87 in    
Wind  
Wind Speed 13 mph (SW)    
Max Wind Speed 22 mph    
Max Gust Speed 32 mph    
Visibility 10 miles    
Events      
Averages and records for this station are not official NWS values.
T = Trace of Precipitation, MM = Missing Value Source: NWS Daily Summary

Daily Weather History Graph

Daily Weather History Graph

Search for Another Location

Airport or City:

Trip Planner

Search our weather history database for the weather conditions in past years. The results will help you decide how hot, cold, wet, or windy it might be!

Date:

Astronomy

Mar. 21, 2014 Rise Set
Actual Time 7:24 AM CDT 7:35 PM CDT
Civil Twilight 6:58 AM CDT 8:01 PM CDT
Nautical Twilight 6:28 AM CDT 8:31 PM CDT
Astronomical Twilight 5:57 AM CDT 9:02 PM CDT
Moon No Moon Rise 10:23 AM CDT (3/21)
Length of Visible Light 13h 02m
Length of Day
12h 10m
Waning Gibbous, 75% of the Moon is Illuminated
Mar 21
Waning Gibbous
Mar 23
Last Quarter
Mar 30
New
Apr 7
First Quarter
Apr 15
Full

Hourly Weather History & Observations

Time (CDT) Temp. Dew Point Humidity Pressure Visibility Wind Dir Wind Speed Gust Speed Precip Events Conditions
12:52 AM 55.0 °F 30.0 °F 38% 29.92 in 10.0 mi South 13.8 mph - N/A   Clear
1:52 AM 53.1 °F 30.9 °F 43% 29.91 in 8.0 mi South 12.7 mph - N/A   Clear
2:52 AM 53.1 °F 30.0 °F 41% 29.89 in 10.0 mi South 13.8 mph - N/A   Clear
3:52 AM 52.0 °F 30.9 °F 45% 29.86 in 10.0 mi South 12.7 mph - N/A   Clear
4:52 AM 51.1 °F 30.9 °F 46% 29.83 in 10.0 mi SSE 11.5 mph - N/A   Clear
5:52 AM 52.0 °F 30.9 °F 45% 29.81 in 10.0 mi South 12.7 mph - N/A   Clear
6:52 AM 54.0 °F 30.0 °F 40% 29.79 in 10.0 mi SSE 11.5 mph - N/A   Clear
7:52 AM 53.1 °F 30.0 °F 41% 29.78 in 10.0 mi SSE 11.5 mph - N/A   Clear
8:52 AM 59.0 °F 32.0 °F 36% 29.77 in 10.0 mi South 21.9 mph 32.2 mph N/A   Clear
9:52 AM 60.1 °F 34.0 °F 38% 29.78 in 10.0 mi South 20.7 mph 28.8 mph N/A   Clear
10:52 AM 63.0 °F 37.0 °F 38% 29.81 in 10.0 mi SSW 16.1 mph - N/A   Clear
11:52 AM 66.9 °F 39.9 °F 37% 29.81 in 10.0 mi SSW 15.0 mph 26.5 mph N/A   Clear
12:52 PM 72.0 °F 41.0 °F 33% 29.81 in 10.0 mi SW 17.3 mph 25.3 mph N/A   Clear
1:52 PM 72.0 °F 36.0 °F 27% 29.81 in 10.0 mi WSW 12.7 mph 18.4 mph N/A   Clear
2:52 PM 73.0 °F 37.0 °F 27% 29.82 in 10.0 mi NNW 8.1 mph - N/A   Clear
3:52 PM 71.1 °F 35.1 °F 27% 29.83 in 10.0 mi NW 9.2 mph - N/A   Clear
4:52 PM 66.9 °F 36.0 °F 32% 29.87 in 10.0 mi North 18.4 mph - N/A   Clear
5:52 PM 66.9 °F 34.0 °F 30% 29.89 in 10.0 mi North 15.0 mph - N/A   Clear
6:52 PM 64.0 °F 32.0 °F 30% 29.92 in 10.0 mi North 11.5 mph - N/A   Clear
7:52 PM 57.9 °F 30.9 °F 36% 29.95 in 10.0 mi North 9.2 mph - N/A   Clear
8:52 PM 57.9 °F 32.0 °F 37% 29.99 in 10.0 mi North 10.4 mph - N/A   Clear
9:52 PM 53.1 °F 33.1 °F 47% 30.01 in 10.0 mi NNE 9.2 mph - N/A   Clear
10:52 PM 48.9 °F 33.1 °F 54% 30.04 in 10.0 mi North 9.2 mph - N/A   Clear
11:52 PM 53.1 °F 28.9 °F 40% 30.06 in 10.0 mi North 12.7 mph - N/A   Clear